Погода в Тирасполе

Молдова     46°50′09″N   29°36′23″E
темп.,
°C
ветер,
м/с
пор.,
м/с
влажн.,
%
обл.,
%
осадки,
мм/ч
давл.,
гПа
погр.,
м
21 апреля, ср
ср2100:00+8з3677100 0.0 1011106
03:00+7з33776 0.0 101239
06:00+7зюз227735 0.0 101314
09:00+12з34595 0.0 1014424
12:00+15з344336 0.0 10152063
15:00+17з343598 0.0 10142488
18:00+15зюз334695 0.0 10151718
21:00+11ююз22648 0.1 101716
22 апреля, чт
чт2200:00+9ю34775 0.0 101766
03:00+8ю22845 0.0 101822
06:00+8ю22855 0.0 101824
09:00+13ю46655 0.0 1019422
12:00+18ююз56460 0.1 10181809
15:00+19юз5638100 0.1 10172304
18:00+18ююз464399 0.0 1016980
21:00+13ю366075 0.0 101787
23 апреля, пт
пт2300:00+11ю4116916 0.0 1017278
03:00+10ююз4118042 0.2 1016242
06:00+9юз248589 0.2 101670
09:00+12сз4571100 0.2 1017449
12:00+16зсз3354100 0.0 10161081
15:00+12сз8870100 1.0 1015868
18:00+7ссз6885100 6.9 1018743
21:00+7ссз577399 6.9 1020867
24 апреля, сб
сб2400:00+6з34825 0.0 102059
03:00+5з37830 0.0 1020126
06:00+4з34825 0.0 102065
09:00+6сз6107465 0.0 1022809
12:00+10сз810436 0.0 10221751
15:00+12сз8113398 0.0 10212395
18:00+11сз683781 0.0 10222051
21:00+8зсз224878 0.0 102328
25 апреля, вс
вс2500:00+7з345675 0.0 102394
03:00+5зюз226242 0.0 102330
06:00+4зюз227543 0.0 102327
09:00+9юз346145 0.0 1022705
12:00+11юз6757100 0.0 10211504
15:00+12зюз6756100 0.5 10191741
18:00+9ссз577036 4.9 1020983
21:00+6вюв22785 4.9 102215